When you browse on this site, cookies collect data to enhance your experience and personalize the content and advertising you see.
Visit our Privacy Policy to learn more. By continuing to use the site, you agree to this use of cookies and data.
  • In Switzerland
  • List of Countries
  • For 7 days
  • Water Temperature
  • Weather Map
  • Weather Widgets
  • user-avatar
    Login

    Hourly Weather Martos

    Today, 18 September, Wednesday

    Time Temperature Precipitation Wind Pressure Humidity
    00:00 +22°C° 0 mm 1 mps 702 mmHg 61%
    01:00 +21°C° 0 mm 1 mps 702 mmHg 64%
    02:00 +21°C° 0 mm 1 mps 701 mmHg 68%
    03:00 +20°C° 0 mm 1 mps 701 mmHg 71%
    04:00 +18°C° 0 mm 0 mps 701 mmHg 75%
    05:00 +17°C° 0 mm 0 mps 701 mmHg 78%
    06:00 +17°C° 0 mm 0 mps 701 mmHg 84%
    07:00 +18°C° 0 mm 0 mps 702 mmHg 76%
    08:00 +22°C° 0 mm 1 mps 702 mmHg 69%
    09:00 +23°C° 0 mm 1 mps 703 mmHg 61%
    10:00 +25°C° 0 mm 1 mps 703 mmHg 55%
    11:00 +26°C° 0 mm 2 mps 703 mmHg 48%
    12:00 +28°C° 0 mm 2 mps 703 mmHg 42%
    13:00 +28°C° 0 mm 2 mps 703 mmHg 39%
    14:00 +29°C° 0 mm 3 mps 703 mmHg 36%
    15:00 +29°C° 0 mm 3 mps 702 mmHg 33%
    16:00 +28°C° 0 mm 3 mps 702 mmHg 36%
    17:00 +27°C° 0 mm 3 mps 702 mmHg 38%
    18:00 +27°C° 0 mm 2 mps 702 mmHg 40%
    19:00 +25°C° 0 mm 2 mps 702 mmHg 43%
    20:00 +24°C° 0 mm 1 mps 702 mmHg 45%
    21:00 +23°C° 0 mm 1 mps 702 mmHg 47%
    22:00 +23°C° 0 mm 1 mps 702 mmHg 49%
    23:00 +22°C° 0 mm 1 mps 702 mmHg 50%

    Tomorrow, 19 September, Thursday

    Time Temperature Precipitation Wind Pressure Humidity
    00:00 +21°C° 0 mm 1 mps 702 mmHg 52%
    01:00 +21°C° 0 mm 1 mps 702 mmHg 54%
    02:00 +20°C° 0 mm 1 mps 702 mmHg 56%
    03:00 +19°C° 0 mm 1 mps 701 mmHg 58%
    04:00 +17°C° 0 mm 0 mps 701 mmHg 60%
    05:00 +17°C° 0 mm 0 mps 701 mmHg 62%
    06:00 +16°C° 0 mm 0 mps 701 mmHg 63%
    07:00 +18°C° 0 mm 0 mps 702 mmHg 57%
    08:00 +20°C° 0 mm 0 mps 702 mmHg 52%
    09:00 +22°C° 0 mm 0 mps 703 mmHg 46%
    10:00 +25°C° 0 mm 1 mps 703 mmHg 41%
    11:00 +27°C° 0 mm 1 mps 703 mmHg 36%
    12:00 +28°C° 0 mm 2 mps 703 mmHg 32%
    13:00 +29°C° 0 mm 2 mps 703 mmHg 30%
    14:00 +29°C° 0 mm 2 mps 703 mmHg 28%
    15:00 +30°C° 0 mm 3 mps 702 mmHg 26%
    16:00 +29°C° 0 mm 2 mps 702 mmHg 28%
    17:00 +28°C° 0 mm 2 mps 702 mmHg 30%
    18:00 +27°C° 0 mm 2 mps 702 mmHg 32%
    19:00 +26°C° 0 mm 2 mps 702 mmHg 34%
    20:00 +25°C° 0 mm 1 mps 702 mmHg 36%
    21:00 +22°C° 0 mm 0 mps 702 mmHg 38%
    22:00 +23°C° 0 mm 1 mps 702 mmHg 41%
    23:00 +22°C° 0 mm 1 mps 702 mmHg 44%

    Day after tomorrow, 20 September, Friday

    Time Temperature Precipitation Wind Pressure Humidity
    00:00 +22°C° 0 mm 1 mps 702 mmHg 46%
    01:00 +21°C° 0 mm 1 mps 701 mmHg 49%
    02:00 +21°C° 0 mm 1 mps 701 mmHg 52%
    03:00 +20°C° 0 mm 1 mps 701 mmHg 55%
    04:00 +20°C° 0 mm 1 mps 701 mmHg 57%
    05:00 +17°C° 0 mm 0 mps 701 mmHg 60%
    06:00 +17°C° 0 mm 0 mps 700 mmHg 62%
    07:00 +18°C° 0 mm 0 mps 701 mmHg 57%
    08:00 +20°C° 0 mm 0 mps 701 mmHg 52%
    09:00 +21°C° 0 mm 0 mps 702 mmHg 47%
    10:00 +24°C° 0 mm 1 mps 702 mmHg 44%
    11:00 +25°C° 0 mm 1 mps 702 mmHg 40%
    12:00 +26°C° 0 mm 2 mps 702 mmHg 37%
    13:00 +26°C° 0 mm 2 mps 702 mmHg 37%
    14:00 +27°C° 0 mm 3 mps 701 mmHg 37%
    15:00 +27°C° 0 mm 3 mps 701 mmHg 37%
    16:00 +26°C° 0.1 mm 3 mps 701 mmHg 41%
    17:00 +25°C° 0.1 mm 2 mps 701 mmHg 45%
    18:00 +25°C° 0.1 mm 1 mps 700 mmHg 49%
    19:00 +24°C° 0.1 mm 1 mps 700 mmHg 54%
    20:00 +22°C° 0.1 mm 1 mps 700 mmHg 59%
    21:00 +21°C° 0.1 mm 1 mps 700 mmHg 64%
    22:00 +21°C° 0 mm 1 mps 700 mmHg 66%
    23:00 +20°C° 0 mm 1 mps 700 mmHg 69%

    21 September, Saturday

    Time Temperature Precipitation Wind Pressure Humidity
    00:00 +19°C° 0 mm 2 mps 700 mmHg 72%
    01:00 +19°C° 0 mm 1 mps 699 mmHg 75%
    02:00 +19°C° 0 mm 1 mps 699 mmHg 78%
    03:00 +16°C° 0 mm 0 mps 699 mmHg 81%
    04:00 +16°C° 0 mm 0 mps 699 mmHg 82%
    05:00 +15°C° 0 mm 0 mps 699 mmHg 83%
    06:00 +15°C° 0 mm 0 mps 698 mmHg 84%
    07:00 +19°C° 0 mm 1 mps 699 mmHg 76%
    08:00 +20°C° 0 mm 1 mps 700 mmHg 69%
    09:00 +22°C° 0 mm 1 mps 700 mmHg 62%
    10:00 +23°C° 0 mm 2 mps 700 mmHg 58%
    11:00 +24°C° 0 mm 3 mps 700 mmHg 54%
    12:00 +25°C° 0 mm 4 mps 700 mmHg 51%
    13:00 +25°C° 0 mm 4 mps 700 mmHg 50%
    14:00 +25°C° 0 mm 4 mps 700 mmHg 49%
    15:00 +25°C° 0 mm 4 mps 699 mmHg 49%
    16:00 +24°C° 0 mm 3 mps 699 mmHg 55%
    17:00 +21°C° 0 mm 3 mps 699 mmHg 62%
    18:00 +20°C° 0 mm 2 mps 699 mmHg 68%
    19:00 +20°C° 0.1 mm 2 mps 700 mmHg 71%
    20:00 +20°C° 0.1 mm 1 mps 700 mmHg 73%
    21:00 +18°C° 0.1 mm 0 mps 700 mmHg 75%
    22:00 +18°C° 0 mm 0 mps 700 mmHg 75%
    23:00 +20°C° 0 mm 1 mps 700 mmHg 75%

    22 September, Sunday

    Time Temperature Precipitation Wind Pressure Humidity
    00:00 +20°C° 0 mm 1 mps 700 mmHg 75%
    01:00 +20°C° 0 mm 1 mps 700 mmHg 76%
    02:00 +19°C° 0 mm 1 mps 700 mmHg 78%
    03:00 +19°C° 0 mm 1 mps 700 mmHg 79%
    04:00 +19°C° 0 mm 1 mps 700 mmHg 79%
    05:00 +19°C° 0 mm 1 mps 700 mmHg 78%
    06:00 +19°C° 0 mm 1 mps 700 mmHg 78%
    07:00 +20°C° 0 mm 1 mps 701 mmHg 75%
    08:00 +20°C° 0 mm 1 mps 701 mmHg 73%
    09:00 +20°C° 0 mm 2 mps 702 mmHg 71%
    10:00 +21°C° 0 mm 2 mps 702 mmHg 67%
    11:00 +22°C° 0 mm 3 mps 702 mmHg 63%
    12:00 +22°C° 0 mm 3 mps 702 mmHg 60%
    13:00 +23°C° 0 mm 4 mps 702 mmHg 53%
    14:00 +25°C° 0 mm 4 mps 702 mmHg 47%
    15:00 +26°C° 0 mm 4 mps 702 mmHg 41%
    16:00 +25°C° 0 mm 3 mps 702 mmHg 41%
    17:00 +24°C° 0 mm 2 mps 702 mmHg 41%
    18:00 +23°C° 0 mm 2 mps 702 mmHg 41%
    19:00 +22°C° 0 mm 1 mps 702 mmHg 43%
    20:00 +21°C° 0 mm 1 mps 703 mmHg 44%
    21:00 +20°C° 0 mm 1 mps 703 mmHg 46%
    22:00 +19°C° 0 mm 1 mps 703 mmHg 48%
    23:00 +19°C° 0 mm 1 mps 703 mmHg 50%

    23 September, Monday

    Time Temperature Precipitation Wind Pressure Humidity
    00:00 +16°C° 0 mm 0 mps 703 mmHg 51%
    01:00 +18°C° 0 mm 1 mps 703 mmHg 52%
    02:00 +16°C° 0 mm 1 mps 703 mmHg 53%
    03:00 +16°C° 0 mm 1 mps 703 mmHg 53%
    04:00 +16°C° 0 mm 1 mps 703 mmHg 54%
    05:00 +15°C° 0 mm 1 mps 703 mmHg 55%
    06:00 +15°C° 0 mm 1 mps 703 mmHg 56%
    07:00 +18°C° 0 mm 1 mps 703 mmHg 51%
    08:00 +20°C° 0 mm 1 mps 704 mmHg 45%
    09:00 +22°C° 0 mm 1 mps 705 mmHg 40%
    10:00 +23°C° 0 mm 1 mps 705 mmHg 36%
    11:00 +25°C° 0 mm 1 mps 705 mmHg 33%
    12:00 +26°C° 0 mm 1 mps 705 mmHg 29%
    13:00 +27°C° 0 mm 2 mps 705 mmHg 27%
    14:00 +28°C° 0 mm 2 mps 705 mmHg 26%
    15:00 +28°C° 0 mm 2 mps 704 mmHg 24%
    16:00 +27°C° 0 mm 2 mps 704 mmHg 27%
    17:00 +26°C° 0 mm 1 mps 704 mmHg 30%
    18:00 +25°C° 0 mm 1 mps 704 mmHg 33%
    19:00 +24°C° 0 mm 1 mps 704 mmHg 35%
    20:00 +21°C° 0 mm 0 mps 704 mmHg 36%
    21:00 +20°C° 0 mm 0 mps 704 mmHg 38%
    22:00 +19°C° 0 mm 0 mps 704 mmHg 39%
    23:00 +19°C° 0 mm 0 mps 704 mmHg 41%
    Show more